Location: Bucharest
(44.4268°N, 26.1025°E)
Time: 03:43:41
(UTC+03:00)

SPROUT - Pass Details

Date: 26 June 2022
Orbit: 588 x 598 km, 97.9° (Epoch: 15 August)

Event Time Altitude Azimuth Distance (km) Brightness Sun altitude
Exits shadow 02:29:05 45° 244° (WSW) 810 ? -20.3°
Maximum altitude 02:29:27 46° 261° (W) 795 ? -20.3°
Drops below altitude 10° 02:33:28 10° 335° (NNW) 1,924 ? -20.1°
Sets 02:35:43 0° 342° (NNW) 2,830 ? -19.9°
